TimeCST,TemperatureF,Dew PointF,Humidity,Sea Level PressureIn,VisibilityMPH,Wind Direction,Wind SpeedMPH,Gust SpeedMPH,PrecipitationIn,Events,Conditions,WindDirDegrees,DateUTC
12:13 AM,8.6,5.0,85,29.96,10.0,North,5.8,-,N/A,,Overcast,360,2012-12-13 06:13:00
12:33 AM,8.6,5.0,85,29.96,10.0,North,6.9,-,N/A,,Overcast,350,2012-12-13 06:33:00
12:54 AM,8.6,5.0,85,29.97,10.0,North,5.8,-,N/A,,Overcast,350,2012-12-13 06:54:00
1:13 AM,8.6,5.0,85,29.97,10.0,North,5.8,-,N/A,,Overcast,360,2012-12-13 07:13:00
1:54 AM,6.8,5.0,92,29.98,10.0,NNW,8.1,-,N/A,Snow,Light Snow,330,2012-12-13 07:54:00
2:13 AM,6.8,3.2,85,29.99,10.0,NNW,8.1,-,N/A,,Overcast,330,2012-12-13 08:13:00
2:33 AM,6.8,3.2,85,30.00,10.0,NW,6.9,-,N/A,,Overcast,320,2012-12-13 08:33:00
2:54 AM,6.8,3.2,85,30.00,10.0,NNW,8.1,-,N/A,,Overcast,330,2012-12-13 08:54:00
3:13 AM,6.8,3.2,85,30.01,10.0,NW,5.8,-,N/A,,Overcast,320,2012-12-13 09:13:00
3:33 AM,6.8,3.2,85,30.02,10.0,NNW,5.8,-,N/A,Snow,Light Snow,330,2012-12-13 09:33:00
3:54 AM,6.8,3.2,85,30.02,10.0,NW,5.8,-,N/A,,Overcast,310,2012-12-13 09:54:00
4:13 AM,6.8,3.2,85,30.02,10.0,NW,6.9,-,N/A,,Overcast,320,2012-12-13 10:13:00
4:33 AM,6.8,3.2,85,30.02,10.0,NNW,8.1,-,N/A,,Overcast,330,2012-12-13 10:33:00
4:54 AM,6.8,3.2,85,30.03,10.0,NW,10.4,-,N/A,,Overcast,320,2012-12-13 10:54:00
5:13 AM,6.8,3.2,85,30.03,10.0,NW,10.4,-,N/A,,Overcast,320,2012-12-13 11:13:00
5:54 AM,6.8,3.2,85,30.03,10.0,NNW,9.2,-,N/A,,Overcast,340,2012-12-13 11:54:00
6:13 AM,6.8,1.4,79,30.04,10.0,North,9.2,-,N/A,,Overcast,350,2012-12-13 12:13:00
6:33 AM,6.8,1.4,79,30.05,10.0,North,5.8,-,N/A,,Overcast,360,2012-12-13 12:33:00
6:54 AM,6.8,1.4,79,30.05,10.0,North,5.8,-,N/A,,Overcast,360,2012-12-13 12:54:00
7:13 AM,6.8,1.4,79,30.06,10.0,North,5.8,-,N/A,,Overcast,350,2012-12-13 13:13:00
7:33 AM,5.0,1.4,85,30.06,10.0,NNW,6.9,-,N/A,,Overcast,340,2012-12-13 13:33:00
7:54 AM,5.0,1.4,85,30.06,10.0,North,5.8,-,N/A,,Overcast,360,2012-12-13 13:54:00
8:13 AM,5.0,1.4,85,30.06,10.0,North,4.6,-,N/A,,Overcast,350,2012-12-13 14:13:00
8:33 AM,6.8,1.4,79,30.07,10.0,North,3.5,-,N/A,,Overcast,360,2012-12-13 14:33:00
8:53 AM,5.0,1.4,85,30.07,10.0,North,3.5,-,N/A,,Overcast,360,2012-12-13 14:53:00
9:13 AM,6.8,1.4,79,30.07,4.0,NNE,3.5,-,N/A,Snow,Light Snow,30,2012-12-13 15:13:00
9:53 AM,6.8,1.4,79,30.07,2.0,Calm,Calm,-,N/A,Snow,Light Snow,0,2012-12-13 15:53:00
10:13 AM,6.8,1.4,79,30.08,3.0,Calm,Calm,-,N/A,Snow,Light Snow,0,2012-12-13 16:13:00
10:34 AM,6.8,1.4,79,30.09,7.0,Calm,Calm,-,N/A,Snow,Light Snow,0,2012-12-13 16:34:00
10:53 AM,6.8,1.4,79,30.09,5.0,Calm,Calm,-,N/A,Snow,Light Snow,0,2012-12-13 16:53:00
11:13 AM,6.8,1.4,79,30.08,5.0,Calm,Calm,-,N/A,Snow,Light Snow,0,2012-12-13 17:13:00
11:34 AM,6.8,1.4,79,30.07,5.0,Calm,Calm,-,N/A,Snow,Light Snow,0,2012-12-13 17:34:00
11:53 AM,6.8,1.4,79,30.07,5.0,Calm,Calm,-,N/A,Snow,Light Snow,0,2012-12-13 17:53:00
12:13 PM,6.8,3.2,85,30.08,7.0,Calm,Calm,-,N/A,Snow,Light Snow,0,2012-12-13 18:13:00
12:34 PM,6.8,3.2,85,30.09,7.0,Calm,Calm,-,N/A,Snow,Light Snow,0,2012-12-13 18:34:00
12:53 PM,8.6,3.2,79,30.08,2.5,Calm,Calm,-,N/A,Snow,Light Snow,0,2012-12-13 18:53:00
1:13 PM,8.6,3.2,79,30.08,4.0,Calm,Calm,-,N/A,Snow,Light Snow,0,2012-12-13 19:13:00
1:34 PM,8.6,3.2,79,30.07,4.0,Calm,Calm,-,N/A,Snow,Light Snow,0,2012-12-13 19:34:00
1:53 PM,8.6,3.2,79,30.07,7.0,South,4.6,-,N/A,Snow,Light Snow,180,2012-12-13 19:53:00
2:14 PM,8.6,3.2,79,30.07,7.0,South,4.6,-,N/A,Snow,Light Snow,170,2012-12-13 20:14:00
2:33 PM,8.6,3.2,79,30.07,7.0,SSE,4.6,-,N/A,Snow,Light Snow,160,2012-12-13 20:33:00
2:53 PM,8.6,3.2,79,30.07,2.5,SSE,5.8,-,N/A,Snow,Light Snow,160,2012-12-13 20:53:00
3:14 PM,8.6,5.0,85,30.07,2.5,SSE,5.8,-,N/A,Snow,Light Snow,160,2012-12-13 21:14:00
3:34 PM,8.6,5.0,85,30.07,2.5,SSE,4.6,-,N/A,Snow,Light Snow,160,2012-12-13 21:34:00
3:53 PM,8.6,6.8,92,30.06,2.5,SSE,5.8,-,N/A,Snow,Light Snow,160,2012-12-13 21:53:00
4:14 PM,8.6,5.0,85,30.07,2.0,SSE,4.6,-,N/A,Snow,Light Snow,160,2012-12-13 22:14:00
4:53 PM,8.6,6.8,92,30.07,2.0,SSE,4.6,-,N/A,Snow,Light Snow,160,2012-12-13 22:53:00
5:34 PM,10.4,6.8,85,30.07,1.5,South,4.6,-,N/A,Snow,Light Snow,170,2012-12-13 23:34:00
6:14 PM,10.4,6.8,85,30.06,3.0,SSE,8.1,-,N/A,Snow,Light Snow,160,2012-12-14 00:14:00
6:53 PM,10.4,6.8,85,30.05,10.0,SSE,6.9,-,N/A,,Overcast,160,2012-12-14 00:53:00
7:13 PM,10.4,6.8,85,30.06,10.0,South,4.6,-,N/A,,Overcast,180,2012-12-14 01:13:00
7:34 PM,10.4,6.8,85,30.06,10.0,SSE,5.8,-,N/A,,Overcast,160,2012-12-14 01:34:00
7:53 PM,10.4,6.8,85,30.05,10.0,South,8.1,-,N/A,,Overcast,170,2012-12-14 01:53:00
8:13 PM,10.4,8.6,92,30.05,10.0,SSE,9.2,-,N/A,,Overcast,160,2012-12-14 02:13:00
8:34 PM,12.2,8.6,85,30.05,10.0,SSE,9.2,-,N/A,,Overcast,160,2012-12-14 02:34:00
8:54 PM,12.2,8.6,85,30.05,10.0,SSE,10.4,-,N/A,,Overcast,160,2012-12-14 02:54:00
9:13 PM,12.2,8.6,85,30.05,10.0,South,11.5,-,N/A,,Overcast,170,2012-12-14 03:13:00
9:34 PM,12.2,8.6,85,30.05,10.0,SSE,11.5,-,N/A,,Overcast,160,2012-12-14 03:34:00
9:53 PM,12.2,10.4,92,30.05,10.0,South,12.7,-,N/A,,Overcast,170,2012-12-14 03:53:00
10:13 PM,12.2,10.4,92,30.06,10.0,SSE,10.4,-,N/A,,Overcast,160,2012-12-14 04:13:00
10:34 PM,14.0,10.4,86,30.06,3.0,SSE,10.4,-,N/A,Snow,Light Snow,160,2012-12-14 04:34:00
10:53 PM,14.0,10.4,86,30.06,10.0,SSE,11.5,-,N/A,,Overcast,160,2012-12-14 04:53:00
11:14 PM,15.8,10.4,79,30.06,3.0,South,10.4,-,N/A,Snow,Light Snow,170,2012-12-14 05:14:00
11:53 PM,15.8,12.2,86,30.06,2.5,South,9.2,-,N/A,Snow,Light Snow,170,2012-12-14 05:53:00